Temp
77 77 77 76 76 77 76 76 76 76 76 77 76 76 76 76 77 76 76 77 77 76 76 76 76 75 75 75 75 74 74 73 73 73 72 71 71 71 70 70 71 71
77 77 77 77 77 77 77 77 77 77 77 76 77 77 77 77 77 77 76 76 77 76 77 76 76 76 75 76 75 74 74 74 73 75 72 72 72 72 70 70 70 71
78 77 77 76 76 77 77 77 77 76 76 77 77 77 77 78 77 77 76 76 77 77 77 77 76 76 76 76 75 75 74 74 73 75 74 74 72 71 71 71 71 71
78 78 79 79 78 78 78 77 77 77 77 77 77 77 77 77 77 77 76 76 76 76 77 77 76 76 76 76 75 75 75 75 75 75 73 74 74 74 73 72 72 71
79 79 79 79 80 79 78 77 77 78 78 77 78 78 77 77 77 78 77 76 76 75 76 77 77 76 76 76 76 74 74 74 75 75 74 73 74 74 74 74 73 72
80 81 81 81 80 79 78 79 78 78 79 78 78 79 78 78 78 77 77 77 77 76 76 77 77 77 77 76 75 75 74 74 75 75 74 74 74 75 75 73 73 72
80 80 79 80 80 79 78 79 79 79 79 79 80 79 79 78 78 79 79 78 78 77 77 76 76 76 77 76 75 75 75 75 76 76 75 75 74 74 74 73 73 72
81 81 81 81 80 79 78 79 79 79 79 79 78 79 80 79 80 80 80 79 79 79 78 78 77 78 78 78 76 75 75 75 75 75 74 74 74 74 74 74 73 73
81 81 81 80 79 79 79 79 80 80 81 79 79 80 81 80 79 80 80 80 80 79 79 78 78 77 77 77 76 76 76 75 75 75 75 74 74 75 76 75 74 73
80 81 80 80 79 79 79 80 80 80 82 81 81 81 81 80 80 81 80 79 79 79 80 79 78 77 77 77 77 77 77 76 77 76 76 76 75 76 76 75 75 74
80 80 80 79 79 80 80 80 81 81 81 82 81 80 81 81 80 81 79 80 79 80 80 80 79 79 78 78 77 76 76 76 76 77 76 76 76 76 75 75 75 75
80 80 80 80 80 80 80 81 81 81 82 81 83 81 81 81 80 80 80 80 81 81 81 80 80 79 79 79 79 78 77 76 76 76 76 77 77 77 77 77 76 76
81 81 81 81 81 81 81 82 82 81 82 82 82 82 81 80 80 80 80 80 81 81 81 80 80 80 79 79 79 78 78 78 76 76 76 76 76 77 77 77 77 77
82 82 82 82 82 82 82 82 82 82 82 82 82 81 80 81 81 81 81 81 80 81 81 81 80 80 79 79 79 78 77 77 77 75 75 76 75 76 76 76 76 76
82 83 83 83 82 82 81 81 81 82 82 82 82 81 80 81 82 82 81 81 82 80 80 80 79 78 79 78 78 78 78 77 77 77 76 75 76 76 76 76 77 77
84 83 83 83 82 81 82 82 82 82 81 81 81 82 82 82 82 82 82 81 81 82 80 79 78 79 75 66 67 77 77 77 76 76 76 76 75 75 75 76 76 77
85 84 84 83 83 82 82 82 83 82 82 81 81 81 81 81 81 81 81 80 81 81 80 79 79 79 64 55 54 57 71 76 76 76 76 76 75 75 74 75 76 78
85 85 85 84 84 84 84 84 83 83 82 82 81 80 80 80 80 80 80 81 80 80 80 79 79 70 56 53 52 51 57 73 75 76 76 76 76 76 76 76 76 76
85 85 85 84 84 84 84 83 83 83 82 82 81 81 81 80 80 80 79 80 80 80 79 80 80 66 54 53 51 50 49 60 76 76 76 76 77 77 78 77 77 77
84 85 83 84 83 83 83 83 83 82 82 82 81 81 80 79 79 79 79 79 80 79 79 79 79 69 54 52 51 49 48 52 74 75 75 77 77 77 77 77 77 76
84 84 83 83 83 83 82 82 81 81 81 81 81 80 80 79 79 79 79 79 79 79 78 78 78 63 55 51 50 49 48 50 70 73 75 75 76 77 77 77 77 77
83 82 82 82 82 82 81 81 80 79 79 79 79 80 80 80 80 80 79 79 79 79 77 75 76 59 54 51 49 48 47 62 69 71 72 74 75 77 77 77 77 77
83 82 81 81 81 80 80 80 79 79 79 80 78 78 78 78 78 78 79 77 76 77 77 76 76 67 55 50 49 48 51 69 70 72 73 73 74 75 77 77 77 78
82 82 81 80 80 79 79 78 79 79 79 79 77 77 76 77 78 78 78 77 76 76 77 74 76 70 56 52 49 47 56 69 72 72 73 73 74 75 76 77 77 70
79 78 78 77 77 77 76 76 76 77 77 77 77 77 76 77 77 77 76 75 74 71 69 67 71 68 56 53 52 47 55 67 69 72 72 73 74 74 75 75 74 71
76 75 74 74 74 74 74 74 75 75 75 75 75 77 78 78 77 76 72 73 73 71 72 71 71 72 69 55 55 48 47 66 70 70 70 71 72 70 73 71 72 73
MSLP
1015.72 1015.76 1015.84 1015.84 1015.80 1015.80 1015.84 1015.84 1015.76 1015.84 1015.80 1015.72 1015.80 1015.80 1015.80 1015.76 1015.72 1015.84 1015.88 1015.88 1015.96 1016.08 1016.16 1016.24 1016.28 1016.36 1016.36 1016.36 1016.44 1016.48 1016.44 1016.60 1016.52 1016.48 1016.64 1016.68 1016.60 1016.64 1016.64 1016.56 1016.48 1016.40
1015.64 1015.64 1015.68 1015.68 1015.68 1015.60 1015.60 1015.60 1015.60 1015.64 1015.64 1015.64 1015.56 1015.56 1015.52 1015.52 1015.56 1015.68 1015.76 1015.84 1015.84 1015.92 1015.96 1016.04 1016.12 1016.20 1016.24 1016.20 1016.24 1016.36 1016.32 1016.32 1016.40 1016.24 1016.48 1016.44 1016.44 1016.44 1016.56 1016.56 1016.48 1016.32
1015.48 1015.56 1015.64 1015.76 1015.68 1015.60 1015.56 1015.48 1015.48 1015.48 1015.52 1015.44 1015.40 1015.44 1015.48 1015.40 1015.48 1015.48 1015.60 1015.64 1015.64 1015.68 1015.80 1015.88 1015.96 1016.00 1016.08 1016.12 1016.16 1016.20 1016.20 1016.20 1016.28 1016.04 1016.20 1016.24 1016.32 1016.40 1016.28 1016.28 1016.24 1016.32
1015.44 1015.44 1015.40 1015.32 1015.40 1015.44 1015.32 1015.40 1015.40 1015.36 1015.36 1015.40 1015.40 1015.28 1015.28 1015.28 1015.32 1015.40 1015.44 1015.52 1015.52 1015.52 1015.56 1015.64 1015.72 1015.80 1015.88 1015.92 1016.00 1016.08 1016.08 1016.04 1015.96 1016.04 1016.16 1016.04 1015.96 1015.96 1016.04 1016.04 1016.08 1016.12
1015.20 1015.24 1015.20 1015.16 1015.12 1015.12 1015.20 1015.32 1015.32 1015.24 1015.24 1015.20 1015.12 1015.12 1015.20 1015.24 1015.24 1015.20 1015.24 1015.28 1015.40 1015.52 1015.32 1015.36 1015.44 1015.56 1015.64 1015.72 1015.80 1015.92 1015.92 1015.92 1015.80 1015.84 1015.92 1015.92 1015.76 1015.80 1015.80 1015.80 1015.84 1015.92
1014.96 1014.88 1014.84 1014.92 1014.92 1015.04 1015.12 1015.12 1015.08 1015.00 1014.96 1015.00 1015.00 1014.92 1014.96 1014.96 1015.00 1015.00 1015.04 1015.12 1015.08 1015.20 1015.20 1015.08 1015.20 1015.24 1015.36 1015.52 1015.60 1015.68 1015.72 1015.76 1015.60 1015.68 1015.76 1015.76 1015.64 1015.48 1015.56 1015.68 1015.76 1015.76
1014.80 1014.76 1014.88 1014.76 1014.80 1014.80 1014.96 1014.88 1014.80 1014.80 1014.76 1014.68 1014.60 1014.72 1014.68 1014.80 1014.80 1014.76 1014.72 1014.76 1014.80 1014.88 1014.92 1014.88 1015.00 1015.08 1015.04 1015.20 1015.36 1015.48 1015.44 1015.44 1015.44 1015.40 1015.52 1015.48 1015.44 1015.48 1015.48 1015.56 1015.56 1015.60
1014.48 1014.44 1014.44 1014.44 1014.56 1014.64 1014.76 1014.64 1014.56 1014.56 1014.52 1014.48 1014.60 1014.44 1014.40 1014.48 1014.44 1014.36 1014.36 1014.44 1014.52 1014.56 1014.60 1014.56 1014.64 1014.68 1014.64 1014.80 1015.08 1015.20 1015.24 1015.20 1015.28 1015.28 1015.32 1015.36 1015.32 1015.36 1015.24 1015.24 1015.36 1015.44
1014.24 1014.24 1014.20 1014.28 1014.44 1014.40 1014.44 1014.36 1014.24 1014.20 1014.08 1014.28 1014.24 1014.16 1014.00 1014.12 1014.16 1014.08 1014.12 1014.12 1014.12 1014.12 1014.20 1014.28 1014.32 1014.44 1014.44 1014.48 1014.72 1014.88 1014.96 1014.92 1014.92 1015.00 1015.08 1015.12 1015.12 1015.00 1014.88 1014.80 1015.00 1015.08
1014.12 1014.04 1014.12 1014.16 1014.24 1014.12 1014.16 1014.04 1013.96 1013.92 1013.80 1013.88 1013.88 1013.80 1013.80 1013.68 1013.72 1013.80 1013.72 1013.84 1013.92 1013.92 1013.84 1013.88 1013.96 1014.08 1014.16 1014.24 1014.32 1014.40 1014.56 1014.56 1014.52 1014.56 1014.64 1014.68 1014.72 1014.68 1014.64 1014.64 1014.68 1014.76
1013.96 1013.92 1014.00 1014.00 1014.00 1013.88 1013.88 1013.80 1013.72 1013.68 1013.60 1013.64 1013.60 1013.68 1013.56 1013.56 1013.52 1013.52 1013.64 1013.60 1013.64 1013.60 1013.52 1013.48 1013.56 1013.68 1013.80 1013.92 1014.00 1014.12 1014.24 1014.32 1014.32 1014.32 1014.32 1014.36 1014.32 1014.36 1014.44 1014.48 1014.48 1014.48
1013.76 1013.76 1013.76 1013.72 1013.64 1013.60 1013.60 1013.52 1013.48 1013.48 1013.44 1013.36 1013.32 1013.40 1013.36 1013.36 1013.44 1013.36 1013.36 1013.36 1013.24 1013.20 1013.16 1013.20 1013.16 1013.28 1013.40 1013.52 1013.56 1013.60 1013.80 1014.00 1014.04 1014.08 1014.08 1014.04 1014.00 1013.96 1013.96 1013.88 1014.04 1014.12
1013.44 1013.44 1013.36 1013.36 1013.32 1013.28 1013.24 1013.24 1013.24 1013.20 1013.24 1013.20 1013.04 1013.12 1013.20 1013.24 1013.16 1013.20 1013.08 1013.16 1013.00 1012.92 1012.92 1012.92 1012.92 1012.96 1013.08 1013.20 1013.28 1013.36 1013.48 1013.56 1013.72 1013.76 1013.80 1013.80 1013.76 1013.68 1013.60 1013.56 1013.60 1013.64
1013.16 1013.04 1013.04 1013.04 1012.96 1012.96 1013.00 1013.00 1013.00 1012.96 1013.00 1012.92 1012.88 1013.00 1013.04 1012.96 1012.92 1012.88 1012.80 1012.80 1012.80 1012.76 1012.64 1012.64 1012.72 1012.80 1012.84 1012.88 1013.00 1013.08 1013.20 1013.32 1013.36 1013.48 1013.52 1013.48 1013.44 1013.40 1013.36 1013.36 1013.40 1013.40
1012.88 1012.80 1012.76 1012.76 1012.84 1012.84 1012.88 1012.88 1012.84 1012.76 1012.72 1012.68 1012.68 1012.72 1012.68 1012.64 1012.52 1012.48 1012.56 1012.56 1012.48 1012.52 1012.52 1012.48 1012.60 1012.60 1012.56 1012.64 1012.72 1012.76 1012.84 1013.00 1013.04 1013.08 1013.12 1013.16 1013.12 1013.04 1013.00 1012.96 1013.00 1013.00
1012.48 1012.56 1012.60 1012.56 1012.64 1012.72 1012.64 1012.60 1012.52 1012.48 1012.48 1012.48 1012.44 1012.36 1012.32 1012.24 1012.28 1012.24 1012.24 1012.28 1012.28 1012.20 1012.20 1012.28 1012.32 1012.28 1012.32 1012.48 1012.56 1012.56 1012.56 1012.64 1012.72 1012.76 1012.80 1012.80 1012.84 1012.80 1012.68 1012.60 1012.52 1012.56
1012.28 1012.32 1012.28 1012.36 1012.28 1012.28 1012.24 1012.20 1012.12 1012.04 1012.12 1012.12 1012.08 1012.08 1012.08 1012.04 1012.08 1012.08 1012.04 1012.00 1011.96 1011.92 1011.92 1011.92 1011.92 1011.84 1011.96 1012.24 1012.44 1012.56 1012.56 1012.44 1012.44 1012.40 1012.36 1012.40 1012.40 1012.44 1012.44 1012.28 1012.12 1012.04
1012.04 1012.04 1012.04 1011.96 1011.92 1011.92 1011.80 1011.68 1011.68 1011.72 1011.72 1011.72 1011.72 1011.80 1011.76 1011.72 1011.84 1011.80 1011.72 1011.64 1011.64 1011.60 1011.60 1011.52 1011.44 1011.40 1011.64 1011.84 1012.08 1012.24 1012.44 1012.32 1012.16 1012.12 1012.04 1012.00 1011.96 1011.96 1011.84 1011.76 1011.72 1011.64
1011.96 1011.96 1011.84 1011.72 1011.60 1011.48 1011.36 1011.32 1011.32 1011.32 1011.28 1011.32 1011.36 1011.24 1011.28 1011.40 1011.36 1011.32 1011.32 1011.24 1011.28 1011.32 1011.28 1011.04 1011.00 1010.88 1011.20 1011.44 1011.68 1011.88 1012.12 1012.32 1011.92 1011.72 1011.68 1011.56 1011.48 1011.40 1011.24 1011.20 1011.12 1011.16
1011.80 1011.76 1011.72 1011.56 1011.36 1011.24 1011.16 1011.12 1011.04 1010.96 1010.80 1010.68 1010.64 1010.68 1010.84 1010.84 1010.76 1010.76 1010.68 1010.72 1010.72 1010.76 1010.72 1010.68 1010.60 1010.56 1010.80 1011.04 1011.28 1011.48 1011.68 1012.08 1011.68 1011.40 1011.28 1011.12 1011.00 1010.84 1010.76 1010.72 1010.72 1010.80
1011.80 1011.68 1011.64 1011.48 1011.32 1011.20 1011.16 1011.12 1011.00 1010.84 1010.68 1010.48 1010.32 1010.24 1010.28 1010.32 1010.28 1010.28 1010.16 1010.08 1010.04 1010.00 1010.08 1010.12 1010.16 1010.20 1010.36 1010.60 1010.84 1011.08 1011.28 1011.84 1011.44 1011.20 1010.96 1010.72 1010.52 1010.36 1010.28 1010.20 1010.16 1010.20
1011.84 1011.80 1011.72 1011.52 1011.36 1011.20 1011.12 1011.00 1010.80 1010.72 1010.60 1010.36 1010.24 1010.04 1009.84 1009.76 1009.72 1009.68 1009.72 1009.60 1009.52 1009.56 1009.68 1009.80 1009.80 1009.92 1009.96 1010.16 1010.44 1010.72 1011.20 1011.64 1011.24 1011.04 1010.76 1010.44 1010.12 1009.88 1009.76 1009.64 1009.56 1009.60
1011.80 1011.76 1011.72 1011.60 1011.36 1011.24 1011.04 1010.76 1010.60 1010.44 1010.24 1009.96 1010.12 1009.96 1009.88 1009.84 1009.68 1009.48 1009.28 1009.52 1009.84 1009.56 1009.48 1009.44 1009.40 1009.28 1009.52 1009.76 1010.04 1010.40 1011.20 1011.00 1010.72 1010.52 1010.24 1009.96 1009.64 1009.36 1009.20 1009.08 1009.00 1008.92
1011.92 1011.80 1011.72 1011.56 1011.40 1011.20 1010.96 1010.72 1010.48 1010.24 1010.12 1009.92 1010.04 1010.00 1009.96 1009.76 1009.52 1009.36 1009.28 1009.32 1009.40 1009.36 1009.32 1009.44 1009.00 1008.84 1009.12 1009.56 1009.96 1010.52 1010.96 1010.68 1010.40 1010.12 1009.80 1009.44 1009.12 1008.88 1008.64 1008.48 1008.32 1008.44
1012.16 1012.08 1012.00 1011.84 1011.68 1011.40 1011.16 1010.96 1010.72 1010.48 1010.20 1010.04 1009.92 1009.80 1009.80 1009.60 1009.44 1009.40 1009.36 1009.28 1009.32 1009.52 1009.36 1009.96 1010.12 1009.56 1009.36 1009.76 1009.92 1010.08 1010.36 1010.40 1010.32 1009.96 1009.56 1009.04 1008.64 1008.40 1008.16 1008.40 1008.64 1008.56
1012.52 1012.52 1012.40 1012.28 1011.96 1011.68 1011.36 1011.12 1010.80 1010.60 1010.44 1010.32 1010.16 1009.80 1009.48 1009.40 1009.36 1009.40 1009.64 1009.36 1009.12 1009.24 1009.12 1009.20 1009.44 1009.16 1008.76 1009.00 1009.32 1009.96 1010.32 1010.00 1009.68 1009.60 1009.36 1008.92 1008.80 1008.80 1008.28 1008.20 1008.04 1008.16
Wind_Speed
4 4 4 4 5 5 5 5 4 5 5 4 4 3 3 2 2 2 2 3 3 3 3 2 2 2 2 1 0 1 2 2 1 2 3 3 3 3 3 4 4 4
4 4 4 4 4 5 5 5 5 5 5 5 5 4 4 3 3 3 3 3 4 4 4 4 3 3 3 3 1 2 2 1 2 1 1 1 1 2 2 3 3 3
3 3 4 5 5 5 6 5 5 5 5 5 5 5 5 4 4 4 4 4 4 4 5 4 4 4 4 4 3 3 3 2 3 2 2 3 2 2 2 1 2 3
3 3 3 4 4 5 5 5 5 5 5 5 6 5 5 5 5 5 4 5 5 5 5 5 5 5 5 5 4 4 4 4 3 3 3 3 2 2 3 3 2 2
3 3 4 4 4 4 4 5 6 5 6 6 5 6 6 6 6 6 5 6 5 6 6 6 6 6 5 5 5 5 5 5 4 4 4 4 3 3 3 3 3 3
4 4 4 4 4 4 4 5 5 5 5 5 5 5 5 6 6 6 7 7 6 6 7 7 6 6 6 6 6 6 5 5 5 5 5 5 4 4 3 3 4 4
5 4 5 5 5 5 5 5 5 5 5 5 5 5 5 6 6 7 7 7 7 7 7 7 7 7 6 6 6 7 6 6 6 6 6 5 5 5 5 5 5 5
6 5 5 5 6 6 6 6 6 6 6 6 7 7 6 7 7 6 6 7 6 7 8 8 8 7 8 7 7 7 7 5 6 7 7 6 6 6 6 5 5 6
6 6 6 6 7 6 7 7 7 7 7 7 7 7 7 7 8 8 7 7 7 7 7 7 7 7 7 7 7 8 8 7 7 7 7 7 7 7 7 5 6 5
6 6 6 7 7 7 8 8 7 7 7 7 7 7 7 6 7 8 8 8 8 8 8 8 8 7 8 8 9 9 9 9 8 8 8 8 8 8 7 6 7 6
6 6 6 7 7 7 8 8 8 7 7 8 7 7 7 6 6 6 7 8 8 8 8 8 8 8 8 8 8 8 9 9 9 9 8 8 8 8 8 8 8 8
7 6 7 7 7 7 7 8 7 8 8 7 7 8 7 6 6 6 6 7 8 8 8 8 8 7 7 8 8 8 8 8 9 9 9 9 9 8 9 8 8 9
7 7 7 7 7 7 7 7 7 7 8 8 8 8 8 7 6 7 6 7 7 7 8 8 7 7 7 7 8 8 8 9 8 9 9 9 9 9 9 9 9 9
7 7 7 7 7 7 7 7 8 8 8 8 8 9 9 9 9 8 7 7 7 7 7 7 7 7 7 7 8 8 8 9 9 9 9 9 9 10 9 9 9 9
6 7 6 7 7 8 8 8 8 8 9 9 8 9 8 9 10 10 9 9 8 8 8 7 7 7 6 7 8 8 8 9 9 10 10 10 10 10 10 9 9 9
7 6 7 7 7 8 8 9 9 9 8 9 10 10 10 10 10 10 10 10 10 10 9 8 8 7 8 10 9 8 8 8 8 9 10 10 10 10 10 10 10 9
7 7 7 8 8 8 8 10 10 9 9 10 10 10 10 10 10 11 11 10 11 11 10 9 9 9 12 13 14 14 10 10 10 10 10 10 10 11 10 10 10 10
7 8 8 9 9 10 10 10 10 10 11 11 10 10 10 10 11 11 12 11 10 11 12 11 10 11 14 15 15 15 13 11 10 10 10 11 11 11 11 10 11 10
8 9 10 10 10 10 10 10 11 12 12 12 12 11 10 11 12 12 12 12 12 13 13 12 12 12 14 15 15 15 15 13 11 12 12 12 12 12 13 12 11 10
7 8 9 9 9 10 10 11 11 12 12 12 11 11 11 12 13 14 13 13 13 13 13 14 13 12 14 15 15 16 16 13 11 12 13 14 14 14 12 13 12 12
7 7 8 8 9 9 9 10 11 11 12 11 11 12 12 12 12 13 12 13 13 13 12 12 11 14 13 14 15 16 16 12 11 11 11 13 14 14 15 14 14 13
8 8 8 9 9 9 9 10 10 10 11 11 11 10 10 10 10 11 12 13 12 12 11 10 9 14 15 14 14 14 12 7 10 11 12 13 15 15 14 14 14 14
10 10 9 10 10 10 11 10 10 10 10 9 9 10 10 10 11 11 10 8 10 12 11 10 11 14 13 12 12 14 7 8 10 11 12 14 14 15 14 15 14 15
11 11 12 11 11 12 12 11 11 10 9 7 8 8 9 9 9 9 9 9 10 10 9 11 12 11 11 10 10 6 7 8 9 11 12 13 13 13 13 13 15 17
10 11 11 12 12 12 11 12 11 10 9 8 7 7 8 8 8 7 7 8 6 7 10 6 12 14 13 10 3 8 8 6 9 11 12 12 11 12 12 9 10 11
9 10 11 11 12 12 11 11 10 9 9 8 8 7 7 7 7 6 8 9 7 8 9 10 12 10 4 2 2 4 10 7 8 10 11 12 11 11 8 6 9 9
Wind_Direction
262 265 270 269 272 275 276 278 277 279 280 279 278 281 281 285 252 237 238 228 217 223 217 227 232 248 236 240 211 314 7 22 346 26 28 8 9 13 357 10 5 14
261 264 267 273 275 273 271 271 276 276 275 272 271 269 268 263 251 253 249 248 225 225 227 223 227 236 246 260 246 267 299 332 314 0 311 273 3 352 341 343 330 352
263 259 258 264 272 272 273 271 270 273 273 272 270 269 269 261 256 247 252 257 256 239 226 230 236 238 240 247 254 260 268 284 299 319 335 340 350 309 301 290 318 335
258 267 276 272 263 273 273 270 267 268 269 269 269 267 262 265 261 253 249 250 263 257 243 234 236 239 243 248 251 256 261 268 273 283 290 293 289 313 332 326 314 283
262 256 264 274 285 283 281 279 277 274 272 275 277 270 270 268 266 268 263 261 254 260 260 239 231 235 239 246 248 255 257 266 266 264 275 291 290 296 301 313 318 311
256 269 267 278 279 277 279 275 276 277 277 278 274 276 272 269 271 272 273 270 265 254 255 258 247 233 232 240 243 250 260 262 270 270 267 272 282 288 298 292 295 295
262 259 266 265 268 268 269 272 272 273 276 281 283 275 275 272 269 273 277 276 270 263 262 260 247 243 235 236 240 248 252 260 268 268 272 273 275 273 261 264 273 274
261 265 262 265 260 260 258 263 263 264 269 266 271 275 272 274 275 276 274 274 272 269 263 259 258 253 246 243 243 245 251 254 259 263 267 273 271 271 270 257 254 267
260 260 259 258 256 257 260 259 263 266 265 269 268 271 268 266 273 273 272 273 272 266 264 263 258 254 251 247 240 247 252 252 252 259 265 271 270 270 277 278 268 270
258 261 259 258 258 258 262 263 265 269 273 272 276 279 281 275 263 268 267 263 265 269 268 260 258 250 244 239 241 243 246 251 253 254 256 260 266 270 274 274 278 280
255 257 256 255 256 262 262 264 265 267 271 275 276 272 274 279 272 263 266 263 260 260 262 264 259 251 247 240 236 239 248 252 256 262 266 266 268 271 268 269 273 274
257 257 255 255 258 259 259 264 269 266 267 265 267 273 275 270 272 268 262 265 258 256 259 262 262 255 251 246 246 242 239 246 254 257 261 264 268 269 272 271 270 268
264 264 264 262 258 258 260 263 267 269 267 267 265 262 267 267 262 263 255 259 267 265 259 255 255 253 249 245 244 242 243 245 244 248 251 257 261 264 268 269 268 266
265 267 269 266 263 262 261 265 268 269 268 270 268 263 261 263 267 265 261 254 260 259 259 257 253 246 242 241 240 240 241 243 245 247 252 255 257 256 257 258 255 258
271 272 271 269 263 264 263 261 263 266 268 268 263 259 256 260 262 260 257 254 251 247 247 243 246 249 246 243 241 242 238 241 244 246 249 251 253 255 254 252 253 253
271 266 262 265 263 259 261 263 264 264 261 262 263 262 261 257 257 257 257 256 254 250 244 241 241 242 231 228 238 247 246 243 245 248 248 250 253 255 254 252 250 248
270 268 267 264 261 260 259 261 264 263 260 260 263 263 262 261 258 258 255 253 256 255 252 243 237 239 215 206 213 226 240 249 251 251 251 250 251 253 256 259 254 247
278 275 273 274 268 264 263 263 262 260 259 258 258 255 252 253 255 255 258 257 255 255 253 251 246 233 213 207 211 217 220 235 244 248 251 254 254 253 254 253 252 253
280 277 278 276 269 267 267 262 261 260 259 256 253 250 249 248 249 251 250 253 254 256 255 254 253 234 214 212 213 216 217 221 243 246 249 252 252 253 255 254 252 248
289 287 284 282 280 275 269 264 261 258 255 251 249 247 244 246 245 244 244 245 248 251 254 254 257 255 219 214 216 217 217 210 238 242 245 250 252 253 253 253 249 248
311 308 303 301 296 291 283 277 275 274 268 261 254 247 243 242 243 244 243 243 243 243 246 249 243 245 230 219 219 220 219 207 237 242 246 247 249 250 251 250 249 246
325 319 310 304 301 296 287 280 277 273 270 267 266 264 255 250 249 248 248 246 246 248 249 250 259 254 236 226 223 228 216 213 233 239 243 249 250 250 249 247 247 245
329 320 313 305 302 297 288 283 278 274 272 272 271 268 266 264 266 263 258 252 259 261 259 249 256 256 239 225 228 231 200 234 239 242 243 245 246 245 246 245 244 242
332 327 321 315 309 302 301 298 293 288 286 287 282 281 279 280 278 271 266 266 263 270 266 270 273 269 268 267 253 225 207 246 254 253 252 249 250 247 244 244 241 234
339 334 328 322 316 313 310 305 301 301 301 300 289 280 278 278 277 278 285 284 292 296 294 301 280 280 280 287 295 170 187 236 256 263 259 254 252 251 247 258 271 261
353 348 341 331 325 322 319 315 315 310 310 307 302 294 293 296 294 282 270 274 265 246 252 248 256 266 278 292 280 187 187 221 254 256 256 259 263 275 272 243 245 244